This is the latest recevied weather packets stored in our database for station/object DB0MGN-WX. If no packets are shown the sender has not sent any weather packets the latest 1 day(s).
| Time | Temp. | Humidity | Pressure | Rain* | Wind** | Luminosity | Snow |
|---|---|---|---|---|---|---|---|
| 1778061662 | 16.67° C | 64% | 1005.5 hPa | - | - | - | - |
| 1778061542 | 16.67° C | 64% | 1005.5 hPa | - | - | - | - |
| 1778061482 | 16.67° C | 65% | 1005.4 hPa | - | - | - | - |
| 1778061422 | 16.67° C | 67% | 1005.3 hPa | - | - | - | - |
| 1778061121 | 16.11° C | 68% | 1005.3 hPa | - | - | - | - |
| 1778061061 | 16.11° C | 67% | 1005.2 hPa | - | - | - | - |
| 1778060881 | 16.11° C | 70% | 1005.3 hPa | - | - | - | - |
| 1778060821 | 16.11° C | 70% | 1005.2 hPa | - | - | - | - |
| 1778060761 | 16.11° C | 69% | 1005.4 hPa | - | - | - | - |
| 1778060701 | 16.11° C | 68% | 1005.2 hPa | - | - | - | - |
| 1778060641 | 16.11° C | 68% | 1005.2 hPa | - | - | - | - |
| 1778060581 | 16.11° C | 67% | 1005.3 hPa | - | - | - | - |
| 1778060521 | 16.67° C | 66% | 1005.3 hPa | - | - | - | - |
| 1778060461 | 16.67° C | 67% | 1005.1 hPa | - | - | - | - |
| 1778060401 | 16.67° C | 67% | 1005.3 hPa | - | - | - | - |
| 1778059860 | 16.67° C | 66% | 1005.1 hPa | - | - | - | - |
| 1778059800 | 16.67° C | 67% | 1005.3 hPa | - | - | - | - |
| 1778059740 | 16.67° C | 68% | 1005.3 hPa | - | - | - | - |
| 1778059680 | 16.11° C | 69% | 1005.2 hPa | - | - | - | - |
| 1778059620 | 16.11° C | 69% | 1005.2 hPa | - | - | - | - |
| 1778059560 | 16.11° C | 69% | 1005.2 hPa | - | - | - | - |
| 1778059500 | 16.11° C | 67% | 1005.2 hPa | - | - | - | - |
| 1778059440 | 16.11° C | 66% | 1005.3 hPa | - | - | - | - |
| 1778058900 | 16.67° C | 69% | 1005.2 hPa | - | - | - | - |
| 1778058719 | 16.67° C | 68% | 1005.2 hPa | - | - | - | - |
* Rain since midnight (hover to see other rain measurements)
** Current wind speed in m/s (hover to see current wind gust speed)